sat.trackr.live / text

‹ back to catalog

KANOPUS-V 3

NORAD 43180 · 2018-014A

PAYLOAD ACTIVE UNKNOWN

§ Identity

Operator
Country
CIS
Launch date
2018-02-01
Launch site
VOSTO
Launch vehicle
Mass (kg)
RCS (m²)

External: N2YO · Heavens-Above · Gunter

§ Orbital elements

Epoch: 2026-05-25T05:06:41.719104Z

Period
94.56 min
Inclination
97.3598°
Eccentricity
0.0001974
Mean motion
15.22858823 rev/d
Perigee alt
495.9 km
Apogee alt
498.6 km
Semi-major
6,875.4 km
B*
9.9506e-5
RAAN
51.1995°
Arg perigee
81.4555°
Mean anomaly
278.6905°
Rev number
46,122

§ Raw data

KANOPUS-V 31 43180U 18014A   26145.21298286  .00002260  00000+0  99506-4 0  99982 43180  97.3598  51.1995 0001974  81.4555 278.6905 15.22858823461224

JSON: /api/v1/satellites/43180 · /tle

For live sub-satellite position, see the globe view (requires WebGL).

§ Visibility from observer

Set your observer location to see the next 7 days of passes ≥ 10°. The values pass through the URL so the page stays shareable.

No JS? Fill the form by hand. The geolocation button needs JavaScript.